Location: Kuppenheim
(48.8299°N, 8.2568°E)
Time: 13:17:59
(UTC+00:00)

USA 215 - Pass Details

Date: 20 June 2021
Orbit: 1100 x 1107 km, 123.0° (Epoch: 22 June)

Event Time Altitude Azimuth Distance (km) Brightness Sun altitude
Rises 00:36:17 0° 62° (ENE) 3,923 6.9 -16.2°
Reaches altitude 10° 00:38:50 10° 57° (ENE) 2,964 6.2 -16.0°
Maximum altitude 00:45:07 52° 344° (NNW) 1,345 4.1 -15.7°
Drops below altitude 10° 00:51:24 10° 270° (W) 2,959 5.3 -15.4°
Sets 00:53:56 0° 266° (W) 3,916 5.9 -15.3°
